Location: Hope
(40.9110°N, 74.9680°W)
Time: 15:53:09
(UTC-05:00)

Tiangong 2 - Pass Details

Date: 25 January 2019
Orbit: 381 x 390 km, 42.8° (Epoch: 19 February)

Event Time Altitude Azimuth Distance (km) Brightness Sun altitude
Exits shadow 05:57:37 35° 275° (W) 639 1.6 -15.0°
Maximum altitude 05:58:46 73° 198° (SSW) 406 1.1 -14.7°
Drops below altitude 10° 06:01:56 10° 114° (ESE) 1,409 5.3 -14.2°
Sets 06:04:01 0° 112° (ESE) 2,263 6.8 -13.8°
